Location: Hamayl? Da??
(36.7028°N, 30.1716°E)
Time: 00:09:41
(UTC+00:00)

Vanguard 1 - Pass Details

Date: 15 December 2025
Orbit: 651 x 3820 km, 34.2° (Epoch: 15 January)

Event Time Altitude Azimuth Distance (km) Brightness Sun altitude
Rises 15:08:03 0° 270° (W) 5,638 15.3 -5.0°
Reaches altitude 10° 15:13:08 10° 253° (WSW) 5,174 15.5 -6.0°
Maximum altitude 15:22:31 18° 216° (SW) 5,302 14.7 -7.7°
Drops below altitude 10° 15:34:31 10° 181° (S) 6,684 14.6 -9.9°
Sets 15:43:04 0° 166° (SSE) 7,927 14.8 -11.5°
